This is the latest recevied weather packets stored in our database for station/object DB0LS-15. If no packets are shown the sender has not sent any weather packets the latest 10 day(s).
| Time | Temp. | Humidity | Pressure | Rain* | Wind** | Luminosity | Snow |
|---|---|---|---|---|---|---|---|
| 1777773968 | 15° C | 45% | 997 hPa | 0 mm | - | - | - |
| 1777773358 | 15.56° C | 45% | 997 hPa | 0 mm | - | - | - |
| 1777772754 | 15.56° C | 44% | 997.2 hPa | 0 mm | - | - | - |
| 1777772150 | 15.56° C | 44% | 997.2 hPa | 0 mm | - | - | - |
| 1777771546 | 15.56° C | 44% | 997.4 hPa | 0 mm | - | - | - |
| 1777770942 | 15.56° C | 44% | 997.4 hPa | 0 mm | - | - | - |
| 1777770338 | 15.56° C | 44% | 997.3 hPa | 0 mm | - | - | - |
| 1777769734 | 15.56° C | 44% | 997.4 hPa | 0 mm | - | - | - |
| 1777769130 | 15.56° C | 44% | 997.5 hPa | 0 mm | - | - | - |
| 1777768526 | 15.56° C | 43% | 997.5 hPa | 0 mm | - | - | - |
| 1777767922 | 16.11° C | 43% | 997.5 hPa | 0 mm | - | - | - |
| 1777767319 | 16.11° C | 43% | 997.5 hPa | 0 mm | - | - | - |
| 1777766715 | 16.11° C | 43% | 997.6 hPa | 0 mm | - | - | - |
| 1777766171 | 16.11° C | 43% | 997.8 hPa | 0 mm | - | - | - |
| 1777765568 | 16.11° C | 43% | 997.8 hPa | 0 mm | - | - | - |
| 1777764958 | 16.11° C | 42% | 997.9 hPa | 0 mm | - | - | - |
| 1777764354 | 16.67° C | 42% | 998 hPa | 0 mm | - | - | - |
| 1777763750 | 16.67° C | 42% | 998.1 hPa | 0 mm | - | - | - |
| 1777763147 | 16.67° C | 42% | 998.2 hPa | 0 mm | - | - | - |
| 1777762543 | 16.11° C | 42% | 998.2 hPa | 0 mm | - | - | - |
| 1777761939 | 16.11° C | 43% | 998.3 hPa | 0 mm | - | - | - |
| 1777761335 | 16.67° C | 42% | 998.4 hPa | 0 mm | - | - | - |
| 1777760732 | 16.67° C | 42% | 998.3 hPa | 0 mm | - | - | - |
| 1777760128 | 17.22° C | 41% | 998.4 hPa | 0 mm | - | - | - |
| 1777759524 | 17.22° C | 40% | 998.4 hPa | 0 mm | - | - | - |
* Rain latest hour (hover to see other rain measurements)
** Current wind speed in m/s (hover to see current wind gust speed)